Location: Newark
(43.6583°N, 1.6617°E)
Time: 06:50:14
(UTC+00:00)

Transit 2A Rocket - Visible Passes

Search period start: 26 August 2019 00:00
Search period end: 05 September 2019 00:00
Orbit: 591 x 913 km, 66.7° (Epoch: 25 August)

Date Brightness Start Highest point End Pass type
(mag) Time Alt. Az. Time Alt. Az. Time Alt. Az.
26 Aug 6.3 02:13:35 10° NNW 02:17:44 32° NE 02:21:39 10° ESE visible
26 Aug 5.3 03:56:19 10° NW 04:00:11 29° WSW 04:03:54 10° S visible
26 Aug 8.0 20:16:43 10° WNW 20:19:29 14° NW 20:22:08 10° N visible
27 Aug 7.1 01:31:28 10° N 01:34:56 20° NE 01:38:14 10° E visible
27 Aug 4.5 03:13:26 10° NW 03:17:51 54° WSW 03:21:00 17° S visible
27 Aug 7.7 19:32:30 10° W 19:36:31 20° NW 19:40:20 10° N visible
28 Aug 7.6 00:49:40 10° N 00:52:00 14° NE 00:54:15 10° ENE visible
28 Aug 4.8 02:30:50 10° NNW 02:34:43 63° NNW 02:34:43 63° NNW visible
29 Aug 6.1 01:48:25 10° NNW 01:51:19 32° N 01:51:19 32° N visible
29 Aug 8.1 19:53:36 10° NW 19:54:49 11° NNW 19:56:01 10° NNW visible
30 Aug 6.9 01:06:10 10° NNW 01:08:33 22° NNE 01:08:33 22° NNE visible
30 Aug 7.7 19:08:36 10° WNW 19:11:47 16° NW 19:14:50 10° N visible
31 Aug 7.3 00:24:09 10° N 00:26:07 16° NNE 00:26:07 16° NNE visible
31 Aug 7.3 02:05:51 10° NW 02:05:57 11° NW 02:05:57 11° NW visible
31 Aug 7.6 23:42:36 10° NNE 23:43:53 12° NNE 23:43:53 12° NNE visible
01 Sep 7.4 01:23:19 10° NNW 01:23:43 12° NNW 01:23:43 12° NNW visible
02 Sep 7.5 00:40:57 10° NNW 00:41:38 14° NNW 00:41:38 14° NNW visible
02 Sep 7.5 23:58:46 10° N 23:59:38 14° N 23:59:38 14° N visible
03 Sep 7.6 23:16:52 10° N 23:17:42 12° NNE 23:17:42 12° NNE visible
